Retour au catalogue

NOAA 17 DEB

ActifPO
NORAD 48746·DEBRIS·🇺🇸 United States

Lancé Jun 24, 2002 depuis Vandenberg Space Force Base

Loading…

Prochains Passages (prochaines 24 heures)

TLE

FraisSource: Space-Track

Époque: Sep 13, 2026, 21:48 UTC

1 48746U 02032CF  26256.90858331  .00010701  00000-0  22240-2 0  9995
2 48746  98.7496 237.7070 0038148  16.0269 344.2126 14.59824874285579

Suivez NOAA 17 DEB en temps réel avec AllMySat

Download on the App Store